Lawrenceville, IL

11:53 PM CST on February 24, 2017 (GMT -0600)
Lawrenceville-Vincennes International

Weather History for KLWV - November, 2013

Change the Weather History Date:

Thursday, November 7, 2013

  Actual Average Record
Temperature  
Mean Temperature 42 °F 50 °F  
Max Temperature 51 °F 60 °F 72 °F (2016)
Min Temperature 33 °F 40 °F 17 °F (1993)
Degree Days  
Heating Degree Days 23 15  
Month to date heating degree days 110 98  
Since 1 July heating degree days 421 395  
Cooling Degree Days 0 0  
Month to date cooling degree days 0 0  
Year to date cooling degree days 1287 1386  
Moisture  
Dew Point 30 °F    
Average Humidity 64    
Maximum Humidity 92    
Minimum Humidity 35    
Precipitation  
Precipitation 0.00 in 0.12 in 1.82 in (1996)
Month to date precipitation 0.59 0.84  
Year to date precipitation 49.65 37.36  
Sea Level Pressure  
Sea Level Pressure 30.31 in    
Wind  
Wind Speed 7 mph (WNW)    
Max Wind Speed 16 mph    
Max Gust Speed 18 mph    
Visibility 9 miles    
Events      
T = Trace of Precipitation, MM = Missing Value Source: NWS Daily Summary

Daily Weather History Graph

Daily Weather History Graph

Search for Another Location

Airport or City:

Trip Planner

Search our weather history database for the weather conditions in past years. The results will help you decide how hot, cold, wet, or windy it might be!

Date:

Astronomy

Nov. 07, 2013 Rise Set
Actual Time 6:24 AM CST 4:43 PM CST
Civil Twilight 5:56 AM CST 5:11 PM CST
Nautical Twilight 5:24 AM CST 5:43 PM CST
Astronomical Twilight 4:53 AM CST 6:14 PM CST
Moon 10:32 AM CST (11/7) 8:55 PM CST (11/7)
Length of Visible Light 11h 15m
Length of Day
10h 19m
Waxing Crescent, 23% of the Moon is Illuminated
Nov 7
Waxing Crescent
Nov 9
First Quarter
Nov 17
Full
Nov 25
Last Quarter
Dec 2
New

Hourly Weather History & Observations

Time (CST) Temp. Windchill Dew Point Humidity Pressure Visibility Wind Dir Wind Speed Gust Speed Precip Events Conditions
12:53 AM 39.0 °F 32.8 °F 37.0 °F 93% 30.22 in 8.0 mi WNW 9.2 mph - N/A   Clear
1:53 AM 37.9 °F 32.1 °F 35.1 °F 89% 30.23 in 8.0 mi WNW 8.1 mph - N/A   Clear
2:53 AM 36.0 °F 29.6 °F 34.0 °F 93% 30.25 in 8.0 mi WNW 8.1 mph - N/A   Clear
3:53 AM 35.1 °F 29.3 °F 32.0 °F 89% 30.27 in 8.0 mi WNW 6.9 mph - N/A   Clear
4:53 AM 34.0 °F 26.6 °F 30.9 °F 89% 30.29 in 8.0 mi NW 9.2 mph - N/A   Clear
5:53 AM 33.1 °F 25.5 °F 30.0 °F 89% 30.31 in 8.0 mi NW 9.2 mph - N/A   Clear
6:53 AM 33.1 °F 27.7 °F 30.0 °F 89% 30.34 in 7.0 mi WNW 5.8 mph - N/A   Clear
7:53 AM 37.0 °F 32.4 °F 30.9 °F 79% 30.36 in 8.0 mi NW 5.8 mph - N/A   Clear
8:53 AM 39.9 °F - 32.0 °F 73% 30.37 in 9.0 mi Calm Calm - N/A   Clear
9:53 AM 43.0 °F - 30.9 °F 62% 30.37 in 9.0 mi Calm Calm - N/A   Clear
10:53 AM 46.0 °F 43.9 °F 28.0 °F 50% 30.37 in 10.0 mi WNW 4.6 mph - N/A   Clear
11:53 AM 48.0 °F - 24.1 °F 39% 30.34 in 10.0 mi Variable 4.6 mph - N/A   Clear
12:53 PM 50.0 °F - 26.1 °F 39% 30.32 in 8.0 mi WSW 11.5 mph 17.3 mph N/A   Clear
1:53 PM 51.1 °F - 25.0 °F 36% 30.30 in 10.0 mi West 13.8 mph 17.3 mph N/A   Clear
2:53 PM 51.1 °F - 26.1 °F 38% 30.28 in 10.0 mi West 12.7 mph - N/A   Clear
3:53 PM 50.0 °F - 28.9 °F 44% 30.28 in 10.0 mi West 10.4 mph - N/A   Clear
4:53 PM 46.9 °F - 32.0 °F 56% 30.29 in 9.0 mi WSW 6.9 mph - N/A   Scattered Clouds
5:53 PM 43.0 °F 39.5 °F 32.0 °F 65% 30.30 in 10.0 mi WSW 5.8 mph - N/A   Partly Cloudy
6:53 PM 41.0 °F 35.8 °F 33.1 °F 73% 30.30 in 9.0 mi SW 8.1 mph - N/A   Clear
7:53 PM 43.0 °F 39.5 °F 33.1 °F 68% 30.31 in 9.0 mi West 5.8 mph - N/A   Clear
8:53 PM 41.0 °F 35.8 °F 32.0 °F 70% 30.33 in 9.0 mi NW 8.1 mph - N/A   Clear
9:53 PM 39.9 °F 33.9 °F 28.0 °F 63% 30.34 in 10.0 mi NNW 9.2 mph - N/A   Clear
10:53 PM 37.9 °F - 26.1 °F 62% 30.33 in 10.0 mi Calm Calm - N/A   Clear
11:53 PM 36.0 °F - 27.0 °F 70% 30.33 in 10.0 mi Calm Calm - N/A   Clear